When you browse on this site, cookies collect data to enhance your experience and personalize the content and advertising you see.
Visit our Privacy Policy to learn more. By continuing to use the site, you agree to this use of cookies and data.
  • Em Portugal
  • Lista de países
  • Para 7 dias
  • Temperatura da água
  • Mapas de satélite
  • Mapa do tempo
  • Widgets de tempo
  • user-avatar
    Iniciar Sessão

    Previsão horária em Ponizove

    Hoje, 23 Maio, Quinta-feira

    Tempo Temperatura Precipitação Vento Pressão Humidade
    00:00 +14°C° 0 mm 0 m/s 739 mmHg 77%
    01:00 +14°C° 0 mm 0 m/s 739 mmHg 77%
    02:00 +14°C° 0 mm 1 m/s 739 mmHg 78%
    03:00 +14°C° 0 mm 1 m/s 739 mmHg 78%
    04:00 +14°C° 0 mm 1 m/s 739 mmHg 78%
    05:00 +14°C° 0 mm 1 m/s 739 mmHg 78%
    06:00 +16°C° 0 mm 1 m/s 739 mmHg 75%
    07:00 +18°C° 0 mm 2 m/s 739 mmHg 71%
    08:00 +20°C° 0 mm 2 m/s 739 mmHg 67%
    09:00 +21°C° 0 mm 2 m/s 739 mmHg 62%
    10:00 +23°C° 0 mm 2 m/s 739 mmHg 56%
    11:00 +25°C° 0 mm 3 m/s 739 mmHg 51%
    12:00 +25°C° 0 mm 3 m/s 739 mmHg 51%
    13:00 +25°C° 0 mm 3 m/s 739 mmHg 51%
    14:00 +25°C° 0 mm 3 m/s 739 mmHg 50%
    15:00 +25°C° 0 mm 3 m/s 739 mmHg 53%
    16:00 +25°C° 0 mm 3 m/s 739 mmHg 56%
    17:00 +25°C° 0 mm 2 m/s 738 mmHg 59%
    18:00 +23°C° 0 mm 2 m/s 738 mmHg 64%
    19:00 +20°C° 0 mm 2 m/s 738 mmHg 70%
    20:00 +18°C° 0 mm 2 m/s 738 mmHg 75%
    21:00 +19°C° 0 mm 1 m/s 738 mmHg 79%
    22:00 +18°C° 0 mm 1 m/s 739 mmHg 82%
    23:00 +16°C° 0 mm 1 m/s 739 mmHg 86%

    Amanhã, 24 Maio, Sexta-feira

    Tempo Temperatura Precipitação Vento Pressão Humidade
    00:00 +16°C° 0 mm 1 m/s 739 mmHg 87%
    01:00 +15°C° 0 mm 1 m/s 739 mmHg 88%
    02:00 +15°C° 0 mm 1 m/s 739 mmHg 89%
    03:00 +15°C° 0 mm 1 m/s 739 mmHg 89%
    04:00 +15°C° 0 mm 1 m/s 739 mmHg 89%
    05:00 +15°C° 0 mm 1 m/s 739 mmHg 90%
    06:00 +18°C° 0 mm 1 m/s 739 mmHg 85%
    07:00 +20°C° 0 mm 1 m/s 739 mmHg 80%
    08:00 +21°C° 0 mm 1 m/s 740 mmHg 75%
    09:00 +22°C° 1.4 mm 1 m/s 740 mmHg 71%
    10:00 +23°C° 1.4 mm 2 m/s 740 mmHg 67%
    11:00 +24°C° 1.4 mm 2 m/s 740 mmHg 63%
    12:00 +24°C° 1.3 mm 2 m/s 740 mmHg 62%
    13:00 +25°C° 1.3 mm 2 m/s 740 mmHg 61%
    14:00 +25°C° 1.3 mm 1 m/s 740 mmHg 60%
    15:00 +24°C° 1 mm 1 m/s 739 mmHg 64%
    16:00 +24°C° 1 mm 2 m/s 739 mmHg 67%
    17:00 +23°C° 1 mm 2 m/s 739 mmHg 71%
    18:00 +21°C° 0.3 mm 2 m/s 739 mmHg 75%
    19:00 +19°C° 0.3 mm 2 m/s 739 mmHg 80%
    20:00 +18°C° 0.3 mm 2 m/s 739 mmHg 84%
    21:00 +17°C° 0 mm 2 m/s 739 mmHg 86%
    22:00 +17°C° 0 mm 2 m/s 738 mmHg 88%
    23:00 +16°C° 0 mm 2 m/s 738 mmHg 89%

    Depois de amanhã, 25 Maio, Sábado

    Tempo Temperatura Precipitação Vento Pressão Humidade
    00:00 +15°C° 0 mm 2 m/s 738 mmHg 90%
    01:00 +15°C° 0 mm 2 m/s 738 mmHg 91%
    02:00 +15°C° 0 mm 2 m/s 738 mmHg 91%
    03:00 +15°C° 0.2 mm 1 m/s 738 mmHg 91%
    04:00 +15°C° 0.2 mm 1 m/s 738 mmHg 91%
    05:00 +15°C° 0.2 mm 1 m/s 738 mmHg 92%
    06:00 +16°C° 0.3 mm 1 m/s 738 mmHg 88%
    07:00 +19°C° 0.3 mm 1 m/s 738 mmHg 85%
    08:00 +20°C° 0.3 mm 1 m/s 738 mmHg 82%
    09:00 +20°C° 0.6 mm 2 m/s 738 mmHg 79%
    10:00 +21°C° 0.6 mm 2 m/s 737 mmHg 77%
    11:00 +21°C° 0.6 mm 3 m/s 737 mmHg 74%
    12:00 +21°C° 1.5 mm 2 m/s 737 mmHg 77%
    13:00 +20°C° 1.5 mm 2 m/s 737 mmHg 80%
    14:00 +20°C° 1.5 mm 2 m/s 736 mmHg 83%
    15:00 +20°C° 0.7 mm 2 m/s 736 mmHg 83%
    16:00 +19°C° 0.7 mm 2 m/s 736 mmHg 82%
    17:00 +19°C° 0.7 mm 2 m/s 736 mmHg 82%
    18:00 +19°C° 0.1 mm 1 m/s 736 mmHg 84%
    19:00 +18°C° 0.1 mm 1 m/s 736 mmHg 85%
    20:00 +16°C° 0.1 mm 1 m/s 736 mmHg 87%
    21:00 +15°C° 0 mm 2 m/s 736 mmHg 88%
    22:00 +13°C° 0 mm 3 m/s 736 mmHg 89%
    23:00 +12°C° 0 mm 3 m/s 736 mmHg 90%

    26 Maio, Domingo

    Tempo Temperatura Precipitação Vento Pressão Humidade
    00:00 +12°C° 0 mm 4 m/s 736 mmHg 91%
    01:00 +11°C° 0 mm 4 m/s 736 mmHg 92%
    02:00 +10°C° 0 mm 4 m/s 736 mmHg 94%
    03:00 +10°C° 0 mm 3 m/s 736 mmHg 94%
    04:00 +9°C° 0 mm 3 m/s 736 mmHg 94%
    05:00 +8°C° 0 mm 3 m/s 737 mmHg 94%
    06:00 +10°C° 0 mm 3 m/s 737 mmHg 89%
    07:00 +11°C° 0 mm 3 m/s 737 mmHg 85%
    08:00 +12°C° 0 mm 4 m/s 737 mmHg 80%
    09:00 +14°C° 0 mm 4 m/s 737 mmHg 75%
    10:00 +15°C° 0 mm 5 m/s 737 mmHg 70%
    11:00 +16°C° 0 mm 5 m/s 737 mmHg 65%
    12:00 +16°C° 0.1 mm 5 m/s 736 mmHg 64%
    13:00 +17°C° 0.1 mm 5 m/s 736 mmHg 64%
    14:00 +17°C° 0.1 mm 5 m/s 736 mmHg 63%
    15:00 +17°C° 0.3 mm 5 m/s 736 mmHg 67%
    16:00 +17°C° 0.3 mm 5 m/s 735 mmHg 70%
    17:00 +16°C° 0.3 mm 5 m/s 735 mmHg 74%
    18:00 +14°C° 0.6 mm 5 m/s 735 mmHg 80%
    19:00 +13°C° 0.6 mm 5 m/s 735 mmHg 86%
    20:00 +10°C° 0.6 mm 5 m/s 735 mmHg 92%
    21:00 +9°C° 0.3 mm 5 m/s 735 mmHg 92%
    22:00 +8°C° 0.3 mm 5 m/s 735 mmHg 93%
    23:00 +8°C° 0.3 mm 5 m/s 735 mmHg 94%

    27 Maio, Segunda-feira

    Tempo Temperatura Precipitação Vento Pressão Humidade
    00:00 +7°C° 0.2 mm 4 m/s 735 mmHg 93%
    01:00 +7°C° 0.2 mm 4 m/s 736 mmHg 92%
    02:00 +6°C° 0.2 mm 4 m/s 736 mmHg 91%
    03:00 +6°C° 0 mm 5 m/s 736 mmHg 92%
    04:00 +6°C° 0 mm 5 m/s 736 mmHg 93%
    05:00 +5°C° 0 mm 5 m/s 737 mmHg 94%
    06:00 +5°C° 0 mm 6 m/s 737 mmHg 89%
    07:00 +7°C° 0 mm 6 m/s 738 mmHg 84%
    08:00 +9°C° 0 mm 6 m/s 738 mmHg 79%
    09:00 +9°C° 0 mm 6 m/s 739 mmHg 77%
    10:00 +10°C° 0 mm 6 m/s 739 mmHg 75%
    11:00 +11°C° 0 mm 6 m/s 740 mmHg 73%
    12:00 +11°C° 0 mm 6 m/s 740 mmHg 73%
    13:00 +13°C° 0 mm 5 m/s 741 mmHg 72%
    14:00 +13°C° 0 mm 5 m/s 741 mmHg 72%
    15:00 +13°C° 0 mm 5 m/s 741 mmHg 72%
    16:00 +14°C° 0 mm 5 m/s 741 mmHg 72%
    17:00 +14°C° 0 mm 4 m/s 741 mmHg 73%
    18:00 +13°C° 0 mm 4 m/s 742 mmHg 77%
    19:00 +12°C° 0 mm 3 m/s 742 mmHg 81%
    20:00 +12°C° 0 mm 2 m/s 742 mmHg 85%
    21:00 +10°C° 0 mm 2 m/s 742 mmHg 87%
    22:00 +10°C° 0 mm 2 m/s 742 mmHg 90%
    23:00 +9°C° 0 mm 2 m/s 743 mmHg 92%

    28 Maio, Terça-feira

    Tempo Temperatura Precipitação Vento Pressão Humidade
    00:00 +9°C° 0 mm 3 m/s 743 mmHg 93%
    01:00 +9°C° 0 mm 3 m/s 743 mmHg 93%
    02:00 +8°C° 0 mm 3 m/s 743 mmHg 93%
    03:00 +9°C° 0 mm 3 m/s 743 mmHg 93%
    04:00 +9°C° 0 mm 3 m/s 743 mmHg 92%
    05:00 +9°C° 0 mm 3 m/s 743 mmHg 92%
    06:00 +11°C° 0 mm 4 m/s 743 mmHg 87%
    07:00 +13°C° 0 mm 4 m/s 743 mmHg 82%
    08:00 +15°C° 0 mm 4 m/s 743 mmHg 76%
    09:00 +16°C° 0 mm 5 m/s 742 mmHg 74%
    10:00 +17°C° 0 mm 6 m/s 742 mmHg 71%
    11:00 +19°C° 0 mm 6 m/s 742 mmHg 68%
    12:00 +17°C° 1 mm 6 m/s 741 mmHg 75%
    13:00 +16°C° 1 mm 6 m/s 741 mmHg 83%
    14:00 +15°C° 1 mm 6 m/s 741 mmHg 90%
    15:00 +15°C° 2.3 mm 6 m/s 740 mmHg 91%
    16:00 +15°C° 2.3 mm 6 m/s 739 mmHg 92%
    17:00 +15°C° 2.3 mm 7 m/s 739 mmHg 93%
    18:00 +16°C° 0.7 mm 6 m/s 739 mmHg 93%
    19:00 +17°C° 0.7 mm 5 m/s 738 mmHg 92%
    20:00 +17°C° 0.7 mm 5 m/s 738 mmHg 91%
    21:00 +18°C° 0.5 mm 4 m/s 738 mmHg 93%
    22:00 +17°C° 0.5 mm 4 m/s 738 mmHg 94%
    23:00 +17°C° 0.5 mm 4 m/s 738 mmHg 95%
    Mostrar mais